Theta_e
349 349 348 347 343 342 342 345 347 350 351 352 356 361 359 360 359 354 349 340 332 326 323 322 317 316 320 320 320 320 320 321 322 322 321 320 323 323 321 321 317 316 316
349 347 347 347 345 344 341 340 345 346 349 351 351 356 362 362 360 354 349 340 336 329 324 320 319 319 317 315 318 321 321 320 321 322 320 319 321 321 321 321 317 316 317
350 350 350 348 347 346 345 342 340 341 346 350 350 352 358 361 362 356 351 345 335 327 324 320 316 315 316 321 321 320 320 319 319 320 320 319 319 319 320 320 318 316 314
350 351 351 351 348 349 347 346 342 339 342 349 351 357 360 362 362 357 351 343 330 323 321 317 312 312 321 321 320 320 320 319 320 319 319 319 319 319 319 320 320 315 314
351 351 351 352 352 352 353 349 347 344 344 348 355 360 361 363 362 358 349 341 328 324 314 305 309 318 318 319 320 321 320 320 320 319 318 318 316 315 315 316 317 316 313
352 352 353 353 353 354 354 353 350 351 350 352 357 361 362 362 360 359 353 340 328 320 305 312 316 317 317 317 317 317 319 320 319 319 317 315 315 314 314 317 317 318 315
354 354 354 354 353 353 354 356 354 355 356 355 358 362 363 363 360 360 353 344 328 316 313 318 318 319 319 319 316 316 316 316 316 319 318 315 314 313 313 317 316 316 313
354 355 355 355 355 355 356 357 355 357 359 359 360 362 363 364 360 359 353 342 326 313 312 316 318 319 319 318 318 319 318 317 317 317 316 316 313 312 315 316 316 316 313
355 356 356 356 357 357 358 358 355 359 361 361 361 363 364 360 360 360 351 340 322 309 311 315 316 315 311 311 316 317 318 316 315 315 314 315 314 314 313 315 315 316 314
354 356 357 358 358 359 359 359 359 360 360 360 362 363 363 360 359 358 352 337 319 308 313 312 311 312 313 313 318 319 318 317 317 318 318 317 316 315 312 311 312 314 314
347 352 357 359 359 360 360 361 361 361 360 362 363 364 360 361 358 356 352 343 327 311 314 315 315 315 315 315 317 320 318 314 315 319 319 319 317 315 314 313 311 313 315
349 350 354 357 358 358 360 361 361 362 362 363 363 362 360 360 359 356 351 348 337 319 317 317 318 316 316 316 317 315 314 315 317 319 320 320 319 318 314 313 311 311 311
350 352 353 356 357 358 360 361 361 362 361 362 362 357 356 351 355 354 348 348 341 326 319 322 320 319 319 319 317 314 315 316 317 320 321 320 319 318 315 314 313 313 312
342 345 343 344 343 356 359 360 360 361 361 361 360 358 352 352 345 338 337 338 338 329 319 320 321 321 321 322 318 315 318 315 318 321 320 320 320 319 317 316 315 315 314
342 338 337 339 340 341 346 357 360 361 361 361 360 359 354 352 352 347 346 340 338 331 319 321 320 321 322 322 320 317 318 314 319 322 321 321 319 319 319 318 316 316 316
342 341 341 339 342 338 335 346 356 360 360 361 361 360 358 355 355 358 352 350 345 330 322 322 322 320 320 319 319 318 319 315 317 322 322 321 319 318 319 318 317 316 317
339 342 344 338 331 334 335 338 341 346 358 359 360 360 359 356 356 358 354 345 343 328 326 323 324 321 319 317 317 318 317 316 315 320 322 320 319 317 320 319 319 316 316
336 337 341 345 346 332 336 350 347 345 345 355 355 355 358 355 349 340 334 335 326 323 325 324 322 320 318 315 316 317 317 317 315 318 321 320 319 318 320 320 320 320 319
333 333 338 342 343 345 348 350 350 345 340 338 347 350 347 344 336 336 338 332 328 325 326 327 324 319 317 315 316 318 317 316 315 317 320 320 319 318 318 319 320 319 320
331 332 336 338 340 343 344 344 344 343 342 342 339 330 330 328 332 340 337 338 336 338 329 328 329 320 317 316 316 318 318 316 315 315 318 319 319 319 318 318 318 319 321
325 328 331 333 335 335 335 335 337 338 339 337 334 334 333 335 335 335 330 332 332 332 330 328 329 321 320 318 316 317 317 316 316 314 317 318 319 318 319 317 317 319 320
321 323 324 325 326 327 326 328 328 328 329 328 329 332 333 336 335 331 330 331 332 333 331 329 326 324 324 323 319 315 317 318 318 315 315 317 318 318 318 318 317 318 319
317 317 318 318 317 317 317 316 317 318 319 321 324 327 329 329 330 330 330 330 331 331 330 328 326 327 328 324 322 317 315 317 319 318 316 316 317 318 317 317 317 318 319
313 312 312 312 311 311 310 310 310 310 311 312 313 315 318 320 325 328 329 329 329 329 330 329 329 324 322 321 319 319 314 318 320 320 319 317 317 317 317 317 317 318 319
311 309 308 307 306 305 305 304 305 305 305 306 307 309 310 313 317 320 325 328 328 329 330 332 332 331 331 330 330 330 331 332 323 318 319 319 318 319 317 317 316 317 318
310 307 305 304 303 302 302 301 300 301 301 303 304 304 308 308 309 311 312 317 317 319 322 325 323 327 330 331 331 331 332 333 331 328 321 320 319 319 318 317 317 316 316
Wind_Speed
30 29 26 25 26 25 23 21 19 15 13 9 5 4 4 4 3 4 5 6 5 4 5 3 5 5 5 6 6 7 6 5 4 1 1 3 2 1 2 1 3 5 7
31 33 32 29 27 27 28 25 21 20 17 14 10 7 6 6 6 7 7 8 6 5 5 5 6 5 8 8 8 8 8 8 4 2 3 3 2 2 1 1 1 0 3
27 28 27 30 30 30 29 28 25 23 21 17 13 11 9 8 7 8 8 8 8 6 6 6 6 5 8 9 9 10 10 10 8 7 7 5 2 3 3 1 3 3 2
27 27 28 29 32 29 28 26 25 23 21 18 14 11 9 9 8 9 9 10 11 8 7 6 8 8 9 10 11 11 11 11 11 11 9 8 6 5 4 4 3 2 5
25 28 31 29 27 25 22 23 22 22 19 16 14 12 10 9 10 11 11 13 12 11 9 10 11 12 13 12 12 12 11 12 13 14 12 11 11 8 7 5 2 4 4
23 26 24 24 23 24 20 19 19 18 17 15 15 13 12 10 12 10 11 15 14 13 15 14 15 16 16 16 17 18 15 13 14 13 12 10 9 9 6 4 5 3 2
20 20 21 21 22 23 22 19 18 17 15 16 16 14 13 11 11 11 13 15 17 16 16 16 14 13 13 13 14 15 16 17 17 11 13 9 8 11 7 3 3 4 4
19 20 18 19 20 20 19 20 19 17 17 16 16 16 13 12 13 12 15 15 17 17 17 16 15 15 12 11 9 9 9 11 12 11 13 12 11 12 6 4 1 3 5
19 19 19 19 19 20 21 22 21 18 16 16 16 16 15 15 15 15 19 19 20 19 17 15 15 14 12 9 7 7 6 7 10 13 17 21 20 17 14 7 5 1 3
14 16 15 17 19 20 21 21 20 19 17 15 14 14 16 17 17 18 22 20 23 22 17 17 15 13 12 8 5 4 4 6 4 4 9 14 18 19 21 16 11 9 3
2 4 9 13 16 17 16 15 16 15 14 16 16 15 18 18 20 22 25 22 24 23 18 17 15 15 11 8 5 3 3 6 6 2 6 10 14 17 16 17 15 12 10
6 4 4 8 13 13 15 14 15 15 16 17 17 16 19 20 20 24 26 22 21 24 19 17 16 19 15 10 4 3 3 5 4 2 4 8 12 13 13 14 16 16 17
10 10 16 3 9 13 13 16 16 18 20 20 18 15 20 17 21 27 28 23 18 21 19 17 19 19 15 11 8 4 4 3 4 5 6 7 10 11 12 12 14 17 20
3 12 15 15 25 14 16 15 18 19 20 20 18 19 19 20 17 25 32 26 19 19 19 18 18 17 15 12 10 6 4 4 4 7 9 7 8 11 12 13 13 15 19
17 17 19 8 11 28 31 17 20 19 22 22 22 21 24 23 28 28 31 31 26 24 24 23 19 16 15 12 10 8 6 7 5 6 9 9 9 11 13 12 11 14 16
14 26 21 8 11 27 30 23 26 21 22 22 20 19 19 22 27 30 30 30 30 27 24 21 18 18 16 15 13 10 10 9 8 6 8 10 10 10 12 12 11 9 12
24 15 11 12 20 20 37 30 16 6 15 18 17 21 20 18 21 22 26 30 28 30 19 21 19 18 17 16 15 13 13 11 11 8 8 10 10 12 12 11 12 11 9
11 11 7 5 9 8 46 38 21 12 15 8 6 14 22 15 6 15 24 29 28 25 21 24 22 20 17 18 17 14 14 13 12 11 7 10 11 11 12 11 9 10 10
11 12 7 2 3 4 4 2 9 14 13 18 19 12 13 32 29 31 10 20 29 25 22 25 24 24 17 17 17 15 15 15 14 14 11 9 11 12 12 11 11 9 9
11 14 9 8 9 9 10 9 8 8 8 9 13 22 27 20 18 30 29 34 41 38 32 23 26 25 20 16 17 16 15 15 15 13 13 11 10 11 13 11 11 13 10
9 9 10 10 12 12 12 11 10 8 7 8 7 6 7 5 2 5 15 19 18 21 23 19 26 21 19 17 16 17 16 16 15 14 14 13 12 11 12 14 13 12 12
10 11 10 12 11 13 12 12 12 12 13 12 10 6 4 2 1 4 10 12 14 20 22 20 17 17 17 18 18 18 18 17 16 16 15 15 14 12 12 13 15 14 14
12 15 16 17 16 17 19 17 16 16 15 14 12 13 14 11 10 10 7 9 12 13 11 14 18 15 17 17 16 19 19 17 18 17 17 16 16 16 14 14 14 16 17
19 19 19 21 22 22 20 20 19 19 16 17 17 18 18 17 17 17 15 12 12 14 13 7 5 7 12 14 15 12 16 14 15 18 19 18 17 18 17 15 15 15 17
19 23 23 21 20 20 19 22 22 18 19 20 21 20 19 20 21 20 20 20 21 21 20 19 11 10 12 12 12 13 12 13 19 20 20 19 20 19 18 18 17 15 15
19 22 25 26 26 24 22 20 21 24 24 26 25 25 25 24 24 22 21 21 19 20 19 19 12 10 8 6 6 7 12 11 12 16 19 18 21 21 20 18 20 19 19
Wind_Direction
212 215 218 220 221 225 230 235 237 246 250 253 258 271 279 286 246 190 181 159 152 137 122 97 72 68 56 43 43 34 22 6 326 33 300 352 2 64 104 90 358 25 40
210 213 219 223 222 222 228 231 233 239 247 253 256 254 256 258 217 192 183 168 170 157 132 108 87 71 69 57 47 45 38 25 9 348 12 4 35 20 44 136 205 274 72
208 212 213 220 225 227 229 231 233 236 241 250 258 253 247 238 212 204 199 179 167 152 140 124 107 89 76 70 62 53 44 44 38 37 40 27 0 7 332 2 48 190 180
205 208 210 215 223 228 229 231 231 236 238 245 245 235 230 220 202 201 195 178 165 151 141 125 114 105 94 84 76 66 62 57 45 42 40 30 13 344 331 338 33 88 143
203 205 211 216 220 224 226 226 227 229 231 233 229 223 220 212 200 202 187 176 164 148 141 127 123 118 107 101 87 76 67 61 53 43 39 34 17 5 4 345 32 93 102
208 214 214 209 212 218 223 221 222 225 221 217 222 220 214 214 218 218 203 175 167 156 147 138 134 128 115 103 91 83 75 63 54 39 37 31 9 359 343 3 31 71 86
215 217 213 206 208 215 219 216 217 221 215 214 215 216 215 209 214 215 201 179 171 163 157 152 147 148 130 119 105 86 72 65 60 41 39 29 8 358 346 330 37 61 71
221 216 206 204 208 213 214 216 218 220 216 211 210 210 210 205 209 209 193 179 172 170 167 161 156 156 158 144 130 109 85 67 58 45 44 41 31 17 358 344 298 80 72
219 219 207 199 205 208 211 214 217 214 216 214 211 204 200 210 204 203 187 179 174 171 169 169 162 163 166 154 142 135 124 106 69 61 56 49 43 41 41 46 44 155 90
216 229 224 208 202 209 214 211 214 214 214 214 213 204 202 207 204 198 193 180 174 171 171 174 174 173 173 168 158 145 145 149 135 68 53 44 44 37 39 49 46 51 64
333 277 220 229 220 217 219 214 212 210 211 206 206 199 202 204 202 194 198 190 183 173 176 180 179 178 179 177 167 137 112 141 140 93 55 47 45 41 46 49 48 47 56
71 323 239 221 236 223 218 215 210 200 201 202 199 191 197 200 204 195 198 203 193 184 178 182 182 178 178 176 165 167 100 115 121 96 53 43 47 45 51 57 55 63 71
73 52 38 325 261 252 226 215 208 207 198 198 194 185 192 192 199 203 197 199 198 196 189 184 180 177 179 192 188 176 131 127 110 87 69 57 60 63 74 68 60 71 79
139 49 18 11 8 343 283 246 222 212 209 201 192 188 187 191 193 195 197 200 191 190 189 178 177 170 171 183 185 171 167 138 108 101 92 83 80 81 80 74 74 82 81
73 61 10 305 349 346 329 276 246 217 209 204 198 193 187 194 205 198 195 194 190 188 178 170 166 169 171 177 180 173 170 149 125 122 105 98 95 92 90 89 83 88 90
30 33 16 358 346 328 340 288 246 220 206 206 206 198 210 213 214 208 205 200 194 182 177 170 178 176 178 179 179 177 166 167 148 143 115 109 113 111 112 107 110 89 97
15 345 354 48 35 349 306 306 233 158 195 201 205 214 210 222 224 215 206 201 195 186 179 182 181 183 178 180 178 172 163 170 157 153 137 119 125 126 129 124 122 115 101
17 333 311 259 190 352 267 230 208 146 126 150 233 220 216 207 180 206 192 193 181 190 194 193 191 179 180 179 176 174 160 161 167 156 159 133 135 139 142 140 142 141 136
20 355 322 291 148 207 310 28 141 152 149 136 138 140 151 126 84 78 84 211 197 200 208 202 205 198 180 179 177 177 169 163 168 164 165 160 144 151 148 149 147 152 147
22 15 22 26 46 54 60 53 76 126 135 122 112 125 131 126 139 171 207 206 204 200 213 201 204 206 186 181 175 178 173 166 165 171 170 174 160 157 158 159 157 159 160
13 36 35 39 40 46 59 64 58 50 56 66 71 133 209 241 271 239 218 202 196 190 210 198 204 202 187 180 176 180 179 176 175 177 179 178 177 166 168 161 165 168 163
20 49 57 58 58 64 60 57 58 64 62 57 48 32 341 305 97 120 167 175 201 208 212 202 204 203 192 182 179 183 184 180 180 182 185 185 185 182 173 173 165 170 171
51 56 63 63 63 68 68 63 70 69 73 76 78 89 93 82 80 96 124 171 193 192 199 212 202 201 192 184 183 191 184 189 189 188 190 194 188 187 186 180 180 172 178
65 63 59 54 56 62 63 65 64 67 72 75 73 72 80 88 92 104 120 116 119 130 138 125 114 159 167 168 169 180 198 192 194 195 196 196 199 193 189 189 189 186 183
55 67 65 61 62 57 55 57 64 58 62 66 70 75 82 86 85 91 107 121 119 124 128 134 153 143 143 153 172 174 185 203 211 209 204 204 201 197 197 193 188 193 189
52 62 68 70 67 64 63 58 58 61 52 57 67 71 78 79 85 91 96 102 101 98 97 106 131 137 151 186 209 221 217 228 212 200 203 204 202 197 199 203 196 189 194